Location: Capelle
(50.3413°N, 1.9974°E)
Time: 06:32:56
(UTC+00:00)

SJ 16-02 - Pass Details

Date: 12 January 2026
Orbit: 582 x 594 km, 75.0° (Epoch: 18 February)

Event Time Altitude Azimuth Distance (km) Brightness Sun altitude
Rises 17:35:11 0° 334° (NNW) 2,825 4.8 -12.6°
Reaches altitude 10° 17:37:26 10° 330° (NNW) 1,921 4.0 -12.9°
Maximum altitude 17:41:38 57° 252° (WSW) 699 2.0 -13.5°
Drops below altitude 10° 17:45:48 10° 175° (S) 1,913 4.0 -14.2°
Sets 17:48:02 0° 171° (S) 2,811 4.8 -14.5°
